Location: Fredericksburg
(30.2750°N, 98.8720°W)
Time: 03:24:43
(UTC-05:00)

ISS - All Passes

Search period start: 26 May 2018 00:00
Search period end: 05 June 2018 00:00
Orbit: 402 x 407 km, 51.6° (Epoch: 26 May)

Date Brightness Start Highest point End Pass type
(mag) Time Alt. Az. Time Alt. Az. Time Alt. Az.
26 May - 03:37:56 10° NNW 03:41:07 49° NE 03:44:17 10° ESE night (unlit)
26 May - 18:37:48 10° S 18:40:29 23° SE 18:43:09 10° ENE daylight
26 May - 20:14:18 10° W 20:16:53 21° NW 20:19:29 10° NNE daylight
27 May - 02:46:09 10° NNW 02:48:51 24° NE 02:51:32 10° E night (unlit)
27 May - 04:22:43 10° WNW 04:25:12 20° SW 04:27:41 10° S night (unlit)
27 May - 17:47:39 10° SE 17:48:27 11° SE 17:49:16 10° ESE daylight
27 May - 19:21:28 10° WSW 19:24:36 43° NW 19:27:43 10° NNE daylight
28 May - 01:54:49 10° N 01:56:28 13° NE 01:58:06 10° ENE night (unlit)
28 May - 03:29:58 10° NW 03:33:07 47° SW 03:36:15 10° SSE night (unlit)
28 May - 18:29:07 10° SW 18:32:22 79° SE 18:35:38 10° NE daylight
29 May - 02:37:42 10° NW 02:40:57 68° NE 02:44:10 10° SE night (unlit)
29 May - 17:37:17 10° SSW 17:40:13 31° SE 17:43:10 10° ENE daylight
29 May - 19:14:29 10° W 19:16:44 17° NW 19:19:00 10° N daylight
30 May - 01:45:45 10° NNW 01:48:40 30° NE 01:51:34 10° ESE night (unlit)
30 May - 03:22:55 10° W 03:24:55 15° SW 03:26:55 10° SSW night (unlit)
30 May - 16:46:18 10° SSE 16:48:08 14° SE 16:49:59 10° E daylight
30 May - 18:21:23 10° WSW 18:24:22 32° NW 18:27:21 10° NNE daylight
31 May - 00:54:09 10° N 00:56:17 16° NE 00:58:24 10° ENE visible
31 May - 02:29:50 10° WNW 02:32:49 34° SW 02:35:48 10° SSE night (unlit)
31 May - 17:28:49 10° SW 17:32:05 76° NW 17:35:21 10° NE daylight
01 Jun - 01:37:23 10° NW 01:40:38 87° SW 01:43:53 10° SE night (unlit)
01 Jun - 16:36:45 10° SSW 16:39:51 43° SE 16:42:59 10° ENE daylight
01 Jun - 18:14:39 10° WNW 18:16:29 14° NW 18:18:19 10° N daylight
02 Jun - 00:45:16 10° NNW 00:48:22 39° NE 00:51:26 10° ESE visible
02 Jun - 02:23:18 10° WSW 02:24:31 12° SW 02:25:42 10° SSW night (unlit)
02 Jun - 15:45:20 10° S 15:47:43 19° SE 15:50:06 10° E daylight
02 Jun - 17:21:14 10° W 17:24:02 25° NW 17:26:50 10° NNE daylight
02 Jun - 23:53:29 10° NNW 23:55:58 20° NE 23:58:26 10° E visible
03 Jun - 01:29:39 10° WNW 01:32:24 25° SW 01:35:09 10° S night (unlit)
03 Jun - 16:28:28 10° WSW 16:31:41 55° NW 16:34:54 10° NE daylight
03 Jun - 23:02:25 10° NNE 23:03:28 11° NNE 23:04:31 10° NE visible
04 Jun - 00:36:59 10° NW 00:40:13 62° SW 00:43:25 10° SSE visible
04 Jun - 15:36:11 10° SSW 15:39:24 59° SE 15:42:37 10° NE daylight
04 Jun - 17:14:55 10° NW 17:16:07 12° NNW 17:17:20 10° NNW daylight
04 Jun - 23:44:44 10° NW 23:47:56 52° NE 23:51:05 10° ESE visible
